User: anonymous   Login
Location: Unspecified
(0.0000°N, 0.0000°E)
Time: 20:46:00
(UTC+01:00)
Language:

Iridium 4 Rocket - Orbit

View from above orbital plane
View from above orbital plane
View from above satellite
View from above satellite

Ground track
Ground track

The orbit data is extracted from the following two-line orbital elements,

1 24797U 97020F   17054.97416378 +.00000252 +00000-0 +49428-4 0  9999
2 24797 086.8951 034.8238 0224584 335.3566 078.4315 14.43952005041570
Epoch (UTC): 23 February 2017 23:22:47
Eccentricity: 0.0224584
inclination: 86.8951°
perigee height: 585 km
apogee height: 905 km
right ascension of ascending node: 34.8238°
argument of perigee: 335.3566°
revolutions per day: 14.43952005
mean anomaly at epoch: 78.4315°
orbit number at epoch: 4157

The dashed part of the orbit path shows where the satellite is in the earth's shadow,  

DLR